Simultaneous Nadir Overpasses (SNOs) Predictions

Prediction of SNOs between METOP-A and NOAA-19 Satellite Orbit:

Table of predicted SNOs for the next 14.0 days since TLE Epoch: 6/2/2017
Index Date (METOP-A) Time (METOP-A) Lat,Lon (METOP-A) SZA (METOP-A ) Date (NOAA-19) Time (NOAA-19) Lat,Lon (NOAA-19) SZA (NOAA-19 ) Distance(km) Time Diff (sec)
1 06/08/2017 18:48:20 77.41, -97.04 54.50 06/08/2017 18:47:08 77.43, -98.21 54.49 28.59 72
2 06/08/2017 19:39:04 -77.29, 69.77 125.64 06/08/2017 19:38:08 -77.30, 69.69 125.65 1.85 56
3 06/08/2017 20:29:45 77.27,-123.03 54.33 06/08/2017 20:29:06 77.29,-123.01 54.35 2.55 39
4 06/08/2017 21:20:26 -77.27, 44.34 125.67 06/08/2017 21:20:09 -77.27, 44.30 125.67 1.05 17
5 06/08/2017 22:11:07 77.25,-148.45 54.30 06/08/2017 22:11:07 77.26,-148.40 54.32 2.33 0
6 06/08/2017 23:01:48 -77.26, 18.92 125.70 06/08/2017 23:02:10 -77.25, 18.91 125.70 0.80 22
7 06/08/2017 23:52:29 77.23,-173.87 54.27 06/08/2017 23:53:08 77.24,-173.79 54.29 2.55 39
8 06/09/2017 00:43:10 -77.24, -6.50 125.72 06/09/2017 00:44:11 -77.22, -6.48 125.73 1.40 61
9 06/09/2017 01:33:55 77.03, 159.97 54.06 06/09/2017 01:35:05 77.05, 161.58 54.11 40.16 70




NCC Satellite Simultaneous Nadir Overpasses (SNOs) Prediction Service
